Location: Tierra del Sol
(32.6128°N, 116.3319°W)
Time: 03:49:49
(UTC-07:00)

Daily predictions for brighter satellites

Satellite Brightness Start Highest point End
(mag) Time Altitude Azimuth Time Altitude Azimuth Time Altitude Azimuth
Cosmos 2227 Rocket 3.7 00:14:47 10° N 00:17:54 32° N 00:17:54 32° N
CZ-2C R/B 4.3 00:21:02 10° N 00:23:35 28° NNW 00:23:35 28° NNW
Cosmos 1980 Rocket 4.2 00:45:28 21° NE 00:45:28 21° NE 00:47:24 10° NE
Cosmos 1697 Rocket 4.3 01:12:39 31° N 01:12:39 31° N 01:15:38 10° N
Cosmos 2297 Rocket 4.1 01:09:39 10° NNW 01:11:50 24° NW 01:11:50 24° NW
SL-16 R/B 4.1 01:26:08 22° ENE 01:26:08 22° ENE 01:28:29 10° NE
Cosmos 2322 Rocket 3.9 01:35:01 26° NE 01:35:01 26° NE 01:37:48 10° NE
USA 234 3.5 01:50:04 10° NE 01:55:43 62° N 01:55:43 62° N
Resurs 1-4 Rocket 4.2 01:58:42 10° NE 02:01:28 19° E 02:01:28 19° E
ATLAS 2AS CENTAUR R/B 4.0 02:14:19 31° ESE 02:14:41 31° ESE 02:21:25 10° NE
ADEOS Rocket 3.5 02:13:30 10° NNE 02:18:30 53° ENE 02:18:30 53° ENE
NOSS 3-1 (A) 4.2 02:20:54 44° NNW 02:20:54 44° NNW 02:25:56 10° NNE
CZ-2D R/B 3.6 02:17:54 10° NE 02:22:06 31° E 02:22:06 31° E
Cosmos 2263 Rocket 3.5 02:17:57 10° N 02:23:07 35° ENE 02:24:05 33° E
Cosmos 2360 Rocket 3.2 02:25:56 38° ENE 02:25:56 38° ENE 02:30:10 10° NE
Cosmos 1980 Rocket 4.1 02:27:13 20° NW 02:27:13 20° NW 02:30:26 10° N
CZ-4C R/B 3.0 02:30:27 10° NW 02:36:58 64° WNW 02:36:58 64° WNW
Cosmos 2322 4.1 02:48:50 55° E 02:48:50 55° E 02:53:52 10° NNE
Meteor 1-15 Rocket 4.3 02:54:33 73° NNE 02:54:33 73° NNE 02:59:40 10° N
Iridium 4 Rocket 4.3 02:58:14 49° ESE 02:59:06 54° E 03:04:40 10° NNE
UNK 4.4 03:00:25 53° NE 03:00:25 53° NE 03:04:19 10° N
NOSS 2-3 (C) 4.3 03:01:30 57° NE 03:01:30 57° NE 03:05:39 10° NNE
SL-16 R/B 3.5 03:08:00 28° NW 03:08:00 28° NW 03:12:23 10° N
Cosmos 44 Rocket 4.3 03:05:45 10° NNW 03:10:16 43° ENE 03:12:31 26° ESE
Cosmos 1302 Rocket 4.1 03:10:53 73° NNW 03:10:53 73° NNW 03:15:44 10° NNE
ADEOS 3.6 03:05:55 10° NNE 03:11:06 74° E 03:11:06 74° E
Cosmos 1606 Rocket 4.5 03:12:36 44° N 03:12:36 44° N 03:15:42 10° N
Cosmos 2322 Rocket 3.7 03:16:49 24° WNW 03:16:49 24° WNW 03:21:12 10° N
IRS-1D 3.5 03:14:04 10° N 03:18:33 66° NW 03:18:33 66° NW
Spot 4 Rocket 4.1 03:15:01 10° N 03:19:49 65° NW 03:19:49 65° NW
CZ-2D R/B 4.4 03:17:11 10° NNE 03:21:15 43° E 03:21:15 43° E
SL-16 R/B 2.4 03:25:41 61° SSW 03:26:39 71° WSW 03:32:56 10° NNW
Centaur D-1AR AC-40 4.0 03:36:41 15° SE 03:36:41 15° SE 03:37:24 10° SE
Meteor 2-19 Rocket 4.5 03:34:38 42° S 03:36:52 77° E 03:43:01 10° N
NOSS 2-3 (D) 4.4 03:38:57 41° WNW 03:39:09 42° NW 03:44:04 10° NNE
Cosmos 1758 Rocket 4.1 03:36:12 10° NNW 03:39:32 46° NW 03:39:32 46° NW
ADEOS II 3.8 03:37:21 10° NE 03:41:51 28° E 03:45:50 12° SSE
Resurs 1-4 Rocket 2.7 03:37:28 10° N 03:42:21 40° WNW 03:42:32 40° WNW
Cosmos 2184 Rocket 4.5 03:44:55 39° W 03:45:33 40° W 03:51:19 10° N
Cosmos 1271 Rocket 2.7 03:46:35 82° NNW 03:46:35 82° NNW 03:50:27 10° N
ARIANE 5 R/B 3.0 03:42:10 10° N 03:46:59 42° WNW 03:47:18 41° W
Cosmos 2237 4.4 03:47:02 49° WSW 03:48:04 56° WNW 03:53:40 10° NNE
Cosmos 1992 Rocket 4.1 03:47:27 44° S 03:49:03 70° ESE 03:54:14 10° NNE
Cosmos 2228 3.4 03:50:41 48° WNW 03:50:41 48° WNW 03:54:28 10° N
Cosmos 1184 Rocket 3.3 03:47:57 10° N 03:50:54 58° NE 03:50:54 58° NE
UNKNOWN OBJECT B 3.0 03:49:30 10° N 03:53:00 56° NW 03:53:00 56° NW
Cosmos 389 Rocket 2.6 03:55:19 69° ESE 03:55:26 70° E 03:58:59 10° NNE
Intelsat 5-1 Rocket 3.3 03:55:20 33° S 03:55:39 34° SSE 04:03:28 10° ESE
Abrixas rocket 4.0 03:57:40 23° SE 03:57:40 23° SE 04:00:10 10° ENE
Cosmos 1953 4.5 03:58:04 10° SE 04:01:18 24° E 04:04:32 10° NE
CZ-2D R/B 3.3 03:58:05 10° NNW 04:02:37 27° WNW 04:03:26 26° W
ATLAS 2AS CENTAUR R/B 3.4 04:01:46 31° WSW 04:05:18 51° NW 04:13:10 10° NNE
CZ-4B R/B 4.4 04:02:39 10° NE 04:06:11 32° E 04:09:14 14° SSE
Lacrosse 5 4.0 04:03:06 11° SSE 04:06:24 19° ESE 04:09:53 10° ENE
Cosmos 2263 Rocket 3.4 04:02:12 10° NW 04:05:41 24° W 04:05:41 24° W
Aureole 2 Rocket 2.7 04:06:58 51° SSW 04:08:00 87° WNW 04:12:07 10° NNE
Cosmos 2360 Rocket 3.6 04:07:42 20° W 04:08:59 22° WNW 04:13:18 10° N
Cosmos 44 3.2 04:05:18 10° NW 04:09:35 50° WSW 04:10:29 42° SSW
Cosmos 2058 Rocket 4.3 04:10:45 26° WNW 04:10:45 26° WNW 04:14:28 10° NNW
COSMOS 2428 3.1 04:09:40 35° WSW 04:11:39 49° WNW 04:17:14 10° N
Cosmos 2219 Rocket 2.1 04:10:11 32° SSW 04:12:57 84° WNW 04:18:40 10° NNE
OAO 3 Rocket 3.5 04:10:18 26° WNW 04:12:58 65° N 04:17:51 10° E
Intercosmos 24 3.9 04:13:16 48° WSW 04:13:52 54° W 04:18:10 10° N
Cosmos 1980 4.2 04:10:14 19° S 04:14:11 56° ESE 04:19:44 10° NNE
DELTA 2 R/B (1) 4.4 04:10:47 19° WNW 04:14:33 46° N 04:19:53 10° ENE
Cosmos 2237 Rocket 2.8 04:11:55 17° S 04:16:04 53° ESE 04:21:31 10° NNE
SEDSat Delta rocket 2.9 04:16:56 44° SW 04:17:55 59° SSE 04:22:07 10° E
MOZ.5/SAFIR/RUBIN 5/SL-8 4.2 04:18:32 35° SW 04:19:32 40° W 04:23:55 10° NNW
PSLV R/B 4.2 04:15:51 10° NNE 04:19:45 60° E 04:22:24 20° S
Nadezhda 3 Rocket 4.1 04:14:41 10° NNW 04:20:46 55° W 04:25:17 19° SSW
BREEZE-M DEB (TANK) 3.9 04:19:29 32° WSW 04:21:24 68° NNW 04:33:51 10° NE
SL-8 Rocket 4.0 04:16:56 15° S 04:22:20 88° E 04:28:41 10° N
Cosmos 1812 Rocket 3.4 04:20:51 31° SSW 04:22:54 72° W 04:27:15 10° N
Cosmos 1544 3.0 04:21:46 39° SSW 04:22:59 71° W 04:26:42 10° N
Cosmos 972 4.3 04:21:08 29° SSW 04:23:40 70° WNW 04:28:32 10° N
Milstar 3 4.3 04:25:29 20° SSW 04:26:18 20° SSW 04:33:08 10° SSE
CZ-4B R/B 4.1 04:22:12 10° NNE 04:27:39 48° E 04:33:00 10° S
Cosmos 1844 Rocket 2.7 04:22:03 10° NNW 04:27:45 86° ENE 04:33:24 10° SSE
Cosmos 2333 Rocket 2.2 04:27:03 24° SSW 04:30:39 74° WNW 04:36:21 10° NNE
SeaSat 1 3.5 04:26:01 10° SE 04:30:44 48° ENE 04:35:29 10° NNW
Okean O Rocket 2.1 04:26:31 10° NNE 04:30:57 61° E 04:35:14 11° S
Atlas Centaur 2 3.2 04:31:17 16° S 04:33:07 20° SSE 04:36:45 10° ESE
Cosmos 1354 Rocket 4.1 04:28:01 10° NNW 04:33:13 57° WSW 04:38:25 10° S
USA 161 1.6 04:33:18 34° SSW 04:34:20 56° W 04:37:17 10° NNW
Cosmos 1766 4.1 04:33:36 29° WSW 04:34:32 33° W 04:38:06 10° NNW
Meteor 2-5 Rocket 4.4 04:31:19 10° NNW 04:36:22 34° W 04:39:37 19° SW
ISS -3.6 04:33:31 10° NW 04:36:47 72° NE 04:40:02 10° SE
Cosmos 1818 4.0 04:34:55 14° S 04:39:33 59° ESE 04:44:54 10° NE
ATLAS 3B R/B 2.8 04:36:27 10° NNW 04:43:07 77° ENE 04:49:34 10° SSE
Meteor 2-21 Rocket 4.4 04:37:45 10° S 04:43:49 88° W 04:49:57 10° N
Meteor 1-24 Rocket 3.9 04:39:14 10° NNW 04:44:26 49° W 04:49:48 10° SSW
GENESIS II 4.2 04:45:46 10° NNW 04:49:42 84° ENE 04:53:33 10° SSE
NOSS 0 Rocket 4.0 04:45:23 16° SW 04:50:19 63° WNW 04:56:29 10° NNE
CZ-4B DEB 4.3 04:45:46 10° NNE 04:51:22 87° ESE 04:56:55 10° SSW
Cosmos 2278 Rocket 3.2 04:46:39 10° N 04:52:09 50° ENE 04:57:38 10° SE
Cosmos 1727 Rocket 4.3 04:47:06 10° N 04:53:17 70° E 04:59:25 10° SSE
Cosmos 1076 Rocket 4.5 04:49:21 10° N 04:53:29 49° E 04:57:35 10° SSE
BREEZE M DEB (TANK) 3.3 04:51:23 10° NW 04:54:30 70° SW 05:03:28 10° SE
Cosmos 1733 3.5 04:50:43 10° S 04:54:34 70° E 04:58:26 10° NNE
Tiangong 1 1.9 04:56:00 17° SSW 04:57:40 33° SE 05:00:13 10° ENE
Cosmos 968 Rocket 3.6 04:54:43 10° NNW 04:59:54 80° ENE 05:05:00 10° SSE
Cosmos 2366 rocket 4.1 04:56:06 10° SSW 05:02:08 59° W 05:08:15 10° N
SL-16 R/B 3.0 04:56:56 10° S 05:02:26 53° ESE 05:07:56 10° NNE
Cosmos 1607 4.4 04:57:43 10° NW 05:03:42 41° WSW 05:09:39 10° S
Cosmos 482 Debris 2.6 05:02:43 22° SW 05:03:48 83° SE 05:06:13 10° NE
USA 238 DEB 3.9 04:57:40 10° NNW 05:04:48 88° ENE 05:11:59 10° SSE
USA 238 3.9 04:57:46 10° NNW 05:04:55 88° ENE 05:12:05 10° SSE
ERBS 2.9 05:04:13 15° WSW 05:06:50 45° NW 05:10:10 10° NNE
Cosmos 1674 2.6 05:04:50 10° N 05:08:42 82° W 05:12:32 10° S
Landsat 4 3.6 05:06:32 10° S 05:10:14 65° WSW 05:13:56 10° NNW
Cosmos 1356 Rocket 3.9 05:09:38 10° NNW 05:13:22 37° W 05:17:02 10° SSW
Cosmos 1339 Rocket 4.4 05:07:27 10° N 05:13:32 80° W 05:19:36 10° S
Okean-O 3.8 05:11:16 10° NNE 05:15:30 44° E 05:19:44 10° S
Cosmos 1844 4.0 05:10:28 10° NW 05:15:48 46° WSW 05:21:11 10° S
CZ-2C R/B 3.9 05:14:02 10° SSE 05:18:35 79° ENE 05:23:05 10° N
Meteor PRIRODA 3.6 05:15:24 10° N 05:19:07 70° WNW 05:22:48 10° SSW
CZ-4B R/B 4.1 05:16:51 10° NNE 05:21:14 87° ESE 05:25:26 10° SSW
ADEOS II 3.1 05:17:01 10° NNW 05:21:25 28° WNW 05:25:50 10° SW
KORONAS-FOTON 3.8 05:19:29 10° N 05:23:25 80° W 05:27:21 10° S
Cosmos 1408 Rocket 3.9 05:21:07 10° N 05:25:34 72° E 05:29:59 10° SSE
Lacrosse 5 rocket 2.5 05:26:07 10° NNW 05:30:09 51° NE 05:34:25 10° SE
